sat.trackr.live / text

‹ back to catalog

DLR-TUBSAT

NORAD 25757 · 1999-029B

PAYLOAD ACTIVE UNKNOWN

§ Identity

Operator
Country
GER
Launch date
1999-05-26
Launch site
SRILR
Launch vehicle
Mass (kg)
RCS (m²)
0.26

Purposes: earth_obs

External: N2YO · Heavens-Above · Gunter

§ Orbital elements

Epoch: 2026-09-19T19:26:53.743200Z

Period
99.14 min
Inclination
98.6773°
Eccentricity
0.0015232
Mean motion
14.52445628 rev/d
Perigee alt
706.9 km
Apogee alt
728.5 km
Semi-major
7,095.8 km
B*
2.2726e-5
RAAN
261.4635°
Arg perigee
64.6813°
Mean anomaly
295.5957°
Rev number
44,698

§ Raw data

DLR-TUBSAT1 25757U 99029B   26262.81034425  .00000044  00000+0  22726-4 0  99902 25757  98.6773 261.4635 0015232  64.6813 295.5957 14.52445628446980

JSON: /api/v1/satellites/25757 · /tle

For live sub-satellite position, see the globe view (requires WebGL).

§ Visibility from observer

Set your observer location to see the next 7 days of passes ≥ 10°. The values pass through the URL so the page stays shareable.

No JS? Fill the form by hand. The geolocation button needs JavaScript.